G7NPW-1 Weather Reports


time (UTC)temp
C
wind
direction
speed
KPH
gust
KPH
rain 1hr
cm
rain 24hr
cm
rain mn
cm
humidity
%
barometer
mb
20260904164004 17 270 33.8 59.5 0.00 0.00 0.00 59 1012.9
20260904163504 17 270 33.8 59.5 0.00 0.00 0.00 59 1012.9
20260904163005 17 270 33.8 59.5 0.00 0.00 0.00 59 1012.9
20260904162504 17 270 33.8 59.5 0.00 0.00 0.00 59 1012.9
20260904155504 18 260 41.8 41.8 0.00 0.00 0.00 52 1011.9
20260904153004 18 260 41.8 41.8 0.00 0.00 0.00 52 1011.9
20260904151505 18 260 41.8 41.8 0.00 0.00 0.00 52 1011.9
20260904150004 18 260 41.8 69.2 0.00 0.00 0.00 52 1011.9
20260904145004 20 260 40.2 69.2 0.00 0.00 0.00 52 1011.9
20260904144504 20 260 40.2 69.2 0.00 0.00 0.00 52 1011.9
20260904144004 20 260 40.2 69.2 0.00 0.00 0.00 52 1011.9
20260904143504 20 260 40.2 69.2 0.00 0.00 0.00 52 1011.9
20260904142504 20 260 40.2 69.2 0.00 0.00 0.00 52 1011.9
20260904142005 20 260 40.2 69.2 0.00 0.00 0.00 52 1011.9
20260904141505 20 260 40.2 69.2 0.00 0.00 0.00 52 1011.9
20260904141004 20 260 40.2 69.2 0.00 0.00 0.00 52 1011.9
20260904140504 20 260 40.2 69.2 0.00 0.00 0.00 52 1011.9
20260904135504 20 270 40.2 69.2 0.00 0.00 0.00 52 1010.8
20260904133004 20 270 40.2 69.2 0.00 0.00 0.00 52 1010.8
20260904132004 20 270 40.2 69.2 0.00 0.00 0.00 52 1010.8
20260904130004 20 270 40.2 74.0 0.00 0.00 0.00 52 1010.8
20260904125504 18 260 46.7 74.0 0.00 0.00 0.00 55 1010.8
20260904125004 18 260 46.7 74.0 0.00 0.00 0.00 55 1010.8
20260904124503 18 260 46.7 74.0 0.00 0.00 0.00 55 1010.8
20260904122004 18 260 46.7 74.0 0.00 0.00 0.00 55 1010.8
20260904121504 18 260 46.7 74.0 0.00 0.00 0.00 55 1010.8
20260904121003 18 260 46.7 74.0 0.00 0.00 0.00 55 1010.8
20260904120504 18 260 46.7 74.0 0.00 0.00 0.00 55 1010.8
20260904115503 17 270 38.6 38.6 0.00 0.00 0.00 63 1010.8
20260904114005 17 270 38.6 38.6 0.00 0.00 0.00 63 1010.8
20260904113504 17 270 38.6 38.6 0.00 0.00 0.00 63 1010.8
20260904113004 17 270 38.6 38.6 0.00 0.00 0.00 63 1010.8
20260904110504 17 270 38.6 38.6 0.00 0.00 0.00 63 1010.8
20260904104504 17 260 35.4 35.4 0.00 0.00 0.00 72 1010.2
20260904102504 17 260 35.4 35.4 0.00 0.00 0.00 72 1010.2
20260904101504 17 260 35.4 35.4 0.00 0.00 0.00 72 1010.2
20260904100004 17 260 35.4 35.4 0.00 0.00 0.00 72 1010.2
20260904095504 17 250 29.0 29.0 0.00 0.00 0.00 88 1009.1
20260904095004 17 250 29.0 29.0 0.00 0.00 0.00 88 1009.1
20260904094004 17 250 29.0 29.0 0.00 0.00 0.00 88 1009.1
20260904093004 17 250 29.0 29.0 0.00 0.00 0.00 88 1009.1
20260904092504 17 250 29.0 29.0 0.00 0.00 0.00 88 1009.1
20260904091504 17 250 29.0 29.0 0.00 0.00 0.00 88 1009.1
20260904085004 16 260 27.4 27.4 0.00 0.00 0.00 93 1008.1
20260904083503 16 260 27.4 27.4 0.00 0.00 0.00 93 1008.1
20260904082004 16 260 27.4 27.4 0.00 0.00 0.00 93 1008.1
20260904081005 16 260 27.4 27.4 0.00 0.00 0.00 93 1008.1
20260904080504 16 260 27.4 29.0 0.00 0.00 0.00 93 1008.1
20260904080004 16 260 27.4 29.0 0.00 0.00 0.00 93 1008.1
20260904075503 16 260 29.0 29.0 0.00 0.00 0.00 93 1008.1
20260904070504 16 260 29.0 29.0 0.00 0.00 0.00 93 1008.1
20260904065505 18 220 20.9 20.9 0.00 0.00 0.00 63 1011.9
20260904065004 18 220 20.9 20.9 0.00 0.00 0.00 63 1011.9
20260904064504 18 220 20.9 20.9 0.00 0.00 0.00 63 1011.9
20260904061004 18 220 20.9 20.9 0.00 0.00 0.00 63 1011.9
20260903203504 20 270 16.1 16.1 0.00 0.00 0.00 68 1012.9
20260903203004 20 270 16.1 16.1 0.00 0.00 0.00 68 1012.9
20260903202004 20 270 16.1 16.1 0.00 0.00 0.00 68 1012.9
20260903200503 20 270 16.1 16.1 0.00 0.00 0.00 68 1012.9
20260903195004 20 270 16.1 16.1 0.00 0.00 0.00 68 1012.9
20260903191504 20 270 16.1 16.1 0.00 0.00 0.00 68 1012.9
20260903191004 20 270 16.1 16.1 0.00 0.00 0.00 68 1012.9
20260903190504 20 270 16.1 20.9 0.00 0.00 0.00 68 1012.9
20260903190004 20 270 16.1 20.9 0.00 0.00 0.00 68 1012.9
20260903181503 22 270 20.9 20.9 0.00 0.00 0.00 60 1012.9
20260903181004 22 270 20.9 20.9 0.00 0.00 0.00 60 1012.9
20260903171503 22 270 20.9 20.9 0.00 0.00 0.00 60 1012.9
20260903171004 22 270 20.9 20.9 0.00 0.00 0.00 60 1012.9
20260903165504 23 240 33.8 33.8 0.00 0.00 0.00 50 1013.9